Flag for Norway Weather past 2 weeks in Brønnøysund, Norway

Now
43 °F

Overcast.


Feels Like: 34 °F
Forecast: 37 / 42 °F
Wind: 21 mph from Southeast

Location: Bronnoysund / Bronnoy

Current Time: Mar 1, 2015 at 4:06:45 AM

Latest Report: Mar 1, 2015 at 3:20 AM


Visibility: N/A

Pressure: 29.09 "Hg

Humidity: 57%

Dew point: 28 °F

Location of BrønnøysundLocation

Historic Weather in Brønnøysund — Graph

°F

Brønnøysund temperature yesterday

Maximum temperature yesterday: 43 °F (at 9:50 AM)
Minimum temperature yesterday: 37 °F (at 1:20 AM)
Average temperature yesterday: 40 °F

Past Weeks' High & Low Weather Summary

 TemperatureHumidityPressure
High45 °F (Feb 19, 6:50 AM)100% (Feb 18, 7:50 PM)30.27 "Hg (Feb 18, 7:50 PM)
Low30 °F (Feb 14, 3:20 AM)42% (Feb 16, 3:20 AM)28.82 "Hg (Feb 23, 2:50 PM)
Average37 °F70%29.48 "Hg
* Reported Feb 14 2:20 AM — Mar 1 2:50 AM, Brønnøysund, Weather by CustomWeather, © 2015

Note: Actual official high and low records may vary slightly from our data, if they occured in-between our weather recording intervals... More about our weather records

Advertising

Brønnøysund weather history for previous 24 hours

 ConditionsComfort  
Time TempWeatherWind HumidityBarometerVisibility
2:50 AM
Sun, Mar 1
43 °FSprinkles. Partly cloudy.24 mph57%29.09 "HgN/A
2:20 AM43 °FSprinkles. Passing clouds.23 mph57%29.09 "HgN/A
1:50 AM43 °FOvercast.21 mph57%29.12 "HgN/A
1:20 AM43 °FClear.22 mph57%29.12 "HgN/A
12:50 AM43 °FClear.24 mph57%29.12 "HgN/A
12:20 AM43 °FClear.21 mph57%29.15 "HgN/A
11:50 PM
Sat, Feb 28
43 °FClear.23 mph57%29.15 "HgN/A
11:20 PM43 °FClear.22 mph53%29.18 "HgN/A
10:50 PM43 °FClear.17 mph57%29.18 "HgN/A
9:50 PM41 °FMostly cloudy.25 mph57%29.18 "HgN/A
9:20 PM41 °FMostly cloudy.22 mph57%29.21 "HgN/A
8:50 PM41 °FMostly cloudy.26 mph57%29.21 "HgN/A
8:20 PM41 °FMostly cloudy.23 mph57%29.21 "HgN/A
7:50 PM41 °FClear.23 mph57%29.18 "HgN/A
7:20 PM41 °FPartly cloudy.24 mph57%29.21 "HgN/A
6:50 PM41 °FClear.26 mph57%29.21 "HgN/A
6:20 PM41 °FClear.25 mph61%29.21 "HgN/A
5:50 PM39 °FClear.29 mph65%29.24 "HgN/A
5:20 PM39 °FScattered clouds.24 mph65%29.21 "HgN/A
4:50 PM39 °FPartly sunny.24 mph65%29.21 "HgN/A
4:20 PM37 °FBroken clouds.25 mph70%29.21 "HgN/A
3:50 PM37 °FSleet. Broken clouds.26 mph70%29.24 "HgN/A
3:20 PM39 °FDrizzle. Broken clouds.20 mph56%29.27 "HgN/A
2:50 PM41 °FBroken clouds.21 mph49%29.27 "HgN/A
1:50 PM41 °FSunny.20 mph49%29.27 "Hg10 mi
12:50 PM39 °FSunny.17 mph52%29.30 "Hg10 mi
11:50 AM41 °FSunny.22 mph49%29.33 "Hg10 mi
11:20 AM41 °FSunny.17 mph53%29.33 "Hg10 mi
10:50 AM41 °FPassing clouds.12 mph49%29.33 "HgN/A
10:20 AM41 °FPassing clouds.13 mph53%29.33 "HgN/A
9:50 AM43 °FSunny.18 mph49%29.36 "Hg10 mi
9:20 AM41 °FPassing clouds.16 mph57%29.36 "HgN/A
8:50 AM41 °FSunny.22 mph57%29.36 "Hg10 mi
8:20 AM41 °FSunny.23 mph53%29.39 "Hg10 mi
7:50 AM41 °FPassing clouds.12 mph57%29.42 "HgN/A
7:20 AM41 °FClear.14 mph57%29.42 "Hg10 mi
6:50 AM41 °FClear.16 mph61%29.45 "Hg10 mi
6:20 AM41 °FPassing clouds.15 mph66%29.45 "HgN/A
5:50 AM41 °FPassing clouds.16 mph66%29.45 "HgN/A
5:20 AM39 °FPassing clouds.14 mph75%29.47 "HgN/A
4:50 AM39 °FOvercast.15 mph87%29.50 "HgN/A
4:20 AM37 °FMostly cloudy.20 mph87%29.50 "HgN/A
Weather by CustomWeather, © 2015

See weather overviewHow to use our weather pages